Terug naar catalogus

STARLINK-37415

ActiefCommunicatieVLEO
NORAD 100035·PAYLOAD·🇺🇸 United States

Gelanceerd Jul 14, 2026 vanaf Cape Canaveral Space Force Station

Loading…

Volgende Passages (komende 24 uur)

TLE

VersSource: Space-Track

Epoch: Sep 14, 2026, 17:57 UTC

1 A0035U 26161H   26257.74847082  .00024752  00000-0  74152-3 0  9998
2 A0035  53.1599  24.8837 0001157  85.2476 274.8659 15.34389704  9723

Volg STARLINK-37415 in realtime met AllMySat

Download on the App Store